Simultaneous Nadir Overpasses (SNOs) Predictions

Prediction of SNOs between GOES-15 and NOAA-20 Satellite Orbit:

Table of predicted SNOs for the next 14.0 days since TLE Epoch: 11/9/2024
Index Date Time (GOES-15) GOES-15 Lat,Lon NOAA-20 Lat,Lon Distance(km) Time Diff (sec)
1 11/09/2024 09:32:13 -0.08, 61.52 -0.96, 57.65 442.18 80
2 11/10/2024 09:16:08 -0.09, 61.53 0.05, 62.18 73.68 80
3 11/12/2024 21:19:09 0.08, 61.54 0.08, 61.45 10.04 80
4 11/15/2024 09:19:38 -0.07, 61.63 -0.27, 60.68 107.10 80
5 11/16/2024 09:03:31 -0.08, 61.64 0.71, 65.23 408.26 80
6 11/17/2024 21:25:17 0.06, 61.63 0.41, 59.95 190.42 80
7 11/18/2024 21:03:51 0.07, 61.66 -0.59, 64.49 323.76 80
8 11/20/2024 09:25:45 -0.05, 61.75 -0.60, 59.20 290.80 80
9 11/21/2024 09:09:39 -0.06, 61.77 0.40, 63.74 224.29 80
10 11/22/2024 21:31:24 0.03, 61.74 0.75, 58.47 372.51 80
